This is the latest recevied weather packets stored in our database for station/object VANOK. If no packets are shown the sender has not sent any weather packets the latest 10 day(s).
| Time | Temp. | Humidity | Pressure | Rain* | Wind** | Luminosity | Snow |
|---|---|---|---|---|---|---|---|
| 1777980441 | 7.22° C | 64% | 1006.8 hPa | - | - | - | - |
| 1777979241 | 7.22° C | 65% | 1006.6 hPa | - | - | - | - |
| 1777978041 | 7.22° C | 66% | 1006.4 hPa | - | - | - | - |
| 1777976840 | 6.67° C | 70% | 1006.3 hPa | - | - | - | - |
| 1777975641 | 6.67° C | 69% | 1006 hPa | - | - | - | - |
| 1777974440 | 7.22° C | 71% | 1005.8 hPa | - | - | - | - |
| 1777973240 | 7.22° C | 73% | 1005.5 hPa | - | - | - | - |
| 1777972041 | 6.67° C | 75% | 1005.3 hPa | - | - | - | - |
| 1777970842 | 6.67° C | 76% | 1005.1 hPa | - | - | - | - |
| 1777969641 | 6.67° C | 78% | 1004.7 hPa | - | - | - | - |
| 1777968441 | 6.67° C | 78% | 1004.4 hPa | - | - | - | - |
| 1777967240 | 6.67° C | 77% | 1004.1 hPa | - | - | - | - |
| 1777966040 | 6.67° C | 78% | 1003.7 hPa | - | - | - | - |
| 1777964840 | 6.67° C | 77% | 1003.4 hPa | - | - | - | - |
| 1777963640 | 6.67° C | 82% | 1002.9 hPa | - | - | - | - |
| 1777962440 | 6.67° C | 81% | 1002.6 hPa | - | - | - | - |
| 1777961240 | 6.67° C | 81% | 1002.3 hPa | - | - | - | - |
| 1777960040 | 6.67° C | 79% | 1002.1 hPa | - | - | - | - |
| 1777958840 | 7.22° C | 77% | 1001.8 hPa | - | - | - | - |
| 1777957639 | 7.22° C | 75% | 1001.7 hPa | - | - | - | - |
| 1777956440 | 7.78° C | 70% | 1001.5 hPa | - | - | - | - |
| 1777955239 | 7.22° C | 74% | 1001.3 hPa | - | - | - | - |
| 1777954039 | 7.22° C | 77% | 1001.2 hPa | - | - | - | - |
| 1777952840 | 7.22° C | 75% | 1001.2 hPa | - | - | - | - |
| 1777951639 | 7.22° C | 74% | 1001.1 hPa | - | - | - | - |
* Rain since midnight (hover to see other rain measurements)
** Current wind speed in m/s (hover to see current wind gust speed)